Location: Hannover
(52.3723°N, 9.7339°E)
Time: 14:46:40
(UTC+02:00)

ISS - Pass Details

Date: 22 March 2017
Orbit: 399 x 409 km, 51.6° (Epoch: 30 March)

Event Time Altitude Azimuth Distance (km) Brightness Sun altitude
Exits shadow 05:19:18 12° 227° (SW) 1,379 -1.7 -9.8°
Maximum altitude 05:19:37 12° 221° (SW) 1,372 -1.6 -9.8°
Drops below altitude 10° 05:20:53 10° 199° (SSW) 1,472 -1.3 -9.6°
Sets 05:24:03 0° 165° (SSE) 2,328 0.1 -9.1°
